[[{"header":{"parameterUnit":"m.s-1","parameterCategory":1,"la1":30.2991,"la2":30.254,"lo1":-89.0895,"lo2":-89.0444,"dy":0.0017,"dx":0.0017,"nx":28,"ny":28,"refTime":"2024-12-17T03:00:00:Z","depth":0,"parameterNumber":2,"parameterNumberName":"U-component_of_WINDS"},"data":[0,0,0,0,0,0,0,0,0,0,0,0,0,0,0,0,0,0,0,0,0,0,0,0,0,0,0,0,0,0,0,0,0,0,0,0,0,0,0,0,0,0,0,0,0,0,0,0,0,0,0,0,0,0,0,0,0,0,1.862,1.862,0,1.8635,1.8635,1.8635,1.8554,1.8552,1.8549,1.8547,1.8565,1.8567,1.857,0,0,0,0,0,0,0,0,0,0,0,0,0,1.8524,1.8526,1.862,1.862,1.862,1.8635,1.8635,1.8635,1.8555,1.8552,1.8549,1.8546,1.8564,1.8567,1.857,0,0,0,0,0,0,0,0,0,0,0,0,0,1.8555,1.8527,1.862,1.8581,1.8578,1.8635,1.8635,1.8635,1.8555,1.8552,1.8548,1.8545,1.8563,1.8567,1.8571,1.8665,0,0,1.8583,1.8585,0,0,0,0,0,0,0,0,1.8553,1.8559,1.8587,1.8584,1.8581,1.8589,1.8608,1.8645,1.8556,1.8564,1.8547,1.8543,1.8576,1.8579,1.8589,1.8666,1.8667,1.8583,1.8586,1.8587,1.8588,0,0,0,0,0,0,0,1.8551,1.8558,1.8626,1.8587,1.8584,1.8565,1.8565,1.8614,1.8589,1.8563,1.8557,1.856,1.8574,1.8586,1.8589,1.8667,1.8583,1.8587,1.8589,1.8591,1.8825,1.8829,0,0,0,0,0,0,1.8554,1.8556,1.8625,1.8626,1.8558,1.8569,1.857,1.859,1.8589,1.8585,1.8563,1.8556,1.858,1.8584,1.8589,1.8702,1.8587,1.8591,1.8593,1.8821,1.8826,1.883,0,0,0,0,0,0,1.8552,1.8561,1.8624,1.859,1.8596,1.8575,1.8598,1.8592,1.8604,1.8589,1.8584,1.858,1.8578,1.8584,1.8647,1.8702,1.8593,1.8596,1.8817,1.8823,1.8828,1.8928,0,0,0,0,0,0,1.855,1.8561,1.8596,1.8591,1.8598,1.8682,1.8601,1.8595,1.8611,1.8602,1.8603,1.86,1.8576,1.8642,1.8652,1.8705,1.86,1.8812,1.882,1.8826,1.892,1.8936,1.8951,0,0,0,0,0,1.8547,1.8623,1.8598,1.8606,1.8641,1.8685,1.8689,1.8659,1.8615,1.8651,1.8642,1.86,1.8694,1.8649,1.8659,1.8715,1.8809,1.8817,1.8826,1.8913,1.8933,1.895,0,0,0,0,0,0,1.8635,1.8621,1.8594,1.867,1.868,1.8671,1.8715,1.8681,1.8704,1.8695,1.8657,1.8658,1.8729,1.8728,1.8678,1.8808,1.8744,1.8755,1.8806,1.8825,1.8841,1.8841,1.8603,0,0,0,0,0,1.8663,1.8699,1.8685,1.8754,1.876,1.8737,1.8755,1.8731,1.874,1.8743,1.8738,1.8749,1.878,1.8802,1.8831,1.8918,1.8919,1.8962,1.8977,1.899,1.9001,1.905,1.907,1.8859,1.8859,1.8859,0,0,1.8722,1.8719,1.8744,1.8772,1.8776,1.8816,1.8741,1.8785,1.8815,1.875,1.8811,1.8807,1.8816,1.8894,1.8927,1.8895,1.9059,1.9001,1.9011,1.9015,1.9061,1.9081,1.9099,1.8865,1.8864,1.8863,0,0,1.885,1.885,1.8909,1.8915,1.8923,1.8907,1.8921,1.8919,1.8914,1.8974,1.8927,1.8962,1.9017,1.9026,1.9038,1.9172,1.9136,1.9182,1.9264,1.9312,1.9329,1.9343,1.9394,1.9412,1.9192,1.9192,1.9193,0,1.8923,1.898,1.8944,1.8992,1.9007,1.895,1.9011,1.9018,1.9035,1.9047,1.901,1.908,1.9082,1.9162,1.9194,1.9205,1.9222,1.9183,1.9329,1.9343,1.9356,1.9404,1.9423,1.9198,1.9198,1.9197,1.9196,0,1.907,1.911,1.9157,1.9175,1.9195,1.9249,1.9223,1.9248,1.9222,1.9211,1.9274,1.9274,1.9303,1.932,1.9295,1.9397,1.9377,1.9335,1.9271,1.9383,1.9428,1.9445,1.9207,1.9205,1.9203,1.9201,0,0,1.9256,1.9254,1.9272,1.928,1.9285,1.9316,1.9368,1.9396,1.9419,1.9432,1.9477,1.9525,1.9487,1.9501,1.9477,1.9519,1.9628,1.9472,1.9472,1.9504,1.9744,1.9778,1.98,1.9603,1.9606,1.9609,1.9745,0,1.9384,1.9472,1.9443,1.9534,1.9572,1.9518,1.9564,1.9573,1.9564,1.9596,1.9586,1.9622,1.9567,1.9576,1.9615,1.9607,1.9677,1.9596,1.9647,1.9649,1.9649,1.9823,1.9858,1.9986,1.9762,1.9764,1.9766,0,1.9545,1.9566,1.9661,1.9661,1.9675,1.9717,1.9742,1.9772,1.9781,1.9772,1.9788,1.9755,1.9808,1.9742,1.9816,1.9762,1.978,1.978,1.9784,1.979,1.9717,1.9836,2.0026,2.0046,1.9793,1.9791,1.9789,0,1.9675,1.9726,1.979,1.9798,1.9799,1.983,1.9832,1.9838,1.9857,1.9878,1.9891,1.9918,1.9934,1.9956,1.9933,1.9886,2.0011,1.9942,2.0007,2.0009,2.0039,2.0038,2.0237,2.0046,2.0045,2.0045,2.0045,0,1.9823,1.9884,1.9849,1.9889,1.9956,1.9921,1.9989,1.9985,1.9991,2.003,1.9985,2.0023,1.9988,2.0023,2.0005,2.0071,2.0077,2.0073,2.0068,2.0079,2.008,2.0093,2.0085,2.005,2.0049,2.0048,2.0047,0,1.998,1.9959,2.0026,2.0021,2.0021,2.0072,2.0068,2.0106,2.0093,2.0144,2.0153,2.0135,2.0174,2.0152,2.0192,2.018,2.0267,2.0248,2.0264,2.026,2.0328,2.0323,2.0545,2.0574,2.0361,2.0363,2.0365,0,2.0078,2.0124,2.0124,2.0147,2.0152,2.0189,2.0209,2.0176,2.0199,2.0214,2.0251,2.0286,2.0313,2.0379,2.0369,2.0401,2.0384,2.046,2.0389,2.0399,2.039,2.0389,2.0394,2.0475,2.0478,2.048,2.0481,0,2.0254,2.0241,2.0271,2.0298,2.0323,2.0342,2.0358,2.038,2.0348,2.0376,2.0416,2.0437,2.0478,2.0515,2.0542,2.0545,2.051,2.0503,2.0521,2.0534,2.0543,2.0543,2.0307,2.0499,2.0497,2.0496,2.0495,2.0494,2.0387,2.0426,2.0433,2.0468,2.0477,2.0493,2.0529,2.0521,2.0553,2.0585,2.0563,2.0612,2.0621,2.0654,2.0662,2.07,2.067,2.0694,2.0701,2.0708,2.0719,2.0534,2.0704,2.0703,2.0703,2.0703,2.0702,0,2.0564,2.0565,2.0598,2.0622,2.0651,2.0612,2.0628,2.0655,2.0698,2.0709,2.0737,2.0784,2.082,2.0813,2.0846,2.0878,2.0863,2.0888,2.0887,2.0889,2.0742,2.0726,2.09,2.09,2.09,2.09,2.09,2.09,2.0659,2.0725,2.0713,2.0783,2.0784,2.0831,2.0844,2.0859,2.0868,2.0923,2.0952,2.0948,2.0953,2.0986,2.1018,2.1015,2.1031,2.1063,2.1055,2.0919,2.0899,2.0881,2.0865,2.1066,2.1066,2.1199,2.12,2.1201]},{"header":{"parameterUnit":"m.s-1","parameterCategory":1,"la1":30.2991,"la2":30.254,"lo1":-89.0895,"lo2":-89.0444,"dy":0.0017,"dx":0.0017,"nx":28,"ny":28,"refTime":"2024-12-17T03:00:00:Z","depth":0,"parameterNumber":3,"parameterNumberName":"V-component_of_WINDS"},"data":[0,0,0,0,0,0,0,0,0,0,0,0,0,0,0,0,0,0,0,0,0,0,0,0,0,0,0,0,0,0,0,0,0,0,0,0,0,0,0,0,0,0,0,0,0,0,0,0,0,0,0,0,0,0,0,0,0,0,-2.6665,-2.6666,0,-2.6763,-2.6764,-2.6765,-2.6832,-2.6832,-2.6832,-2.6833,-2.6931,-2.6933,-2.6935,0,0,0,0,0,0,0,0,0,0,0,0,0,-2.6534,-2.6536,-2.6665,-2.6666,-2.6667,-2.6763,-2.6764,-2.6765,-2.6831,-2.6832,-2.6833,-2.6833,-2.693,-2.6932,-2.6935,0,0,0,0,0,0,0,0,0,0,0,0,0,-2.6607,-2.6537,-2.6665,-2.6712,-2.6717,-2.6762,-2.6764,-2.6766,-2.6831,-2.6832,-2.6833,-2.6833,-2.6929,-2.6932,-2.6935,-2.6941,0,0,-2.6945,-2.6947,0,0,0,0,0,0,0,0,-2.6603,-2.6612,-2.6704,-2.6709,-2.6715,-2.6786,-2.6754,-2.6824,-2.6831,-2.6788,-2.6833,-2.6834,-2.6882,-2.6889,-2.6906,-2.6945,-2.6949,-2.6946,-2.6947,-2.6949,-2.695,0,0,0,0,0,0,0,-2.6598,-2.6608,-2.6704,-2.6705,-2.6712,-2.6728,-2.6739,-2.6767,-2.6829,-2.6792,-2.6797,-2.6808,-2.6885,-2.6902,-2.6908,-2.6951,-2.6945,-2.6948,-2.695,-2.6952,-2.7,-2.7,0,0,0,0,0,0,-2.6586,-2.6603,-2.6701,-2.6707,-2.666,-2.673,-2.6742,-2.6762,-2.6829,-2.684,-2.6807,-2.681,-2.6896,-2.6904,-2.6912,-2.6923,-2.6949,-2.6952,-2.6954,-2.7001,-2.7,-2.7,0,0,0,0,0,0,-2.6583,-2.6594,-2.6697,-2.6657,-2.6671,-2.6731,-2.6753,-2.6764,-2.6781,-2.6841,-2.6852,-2.6813,-2.6897,-2.6907,-2.6933,-2.6927,-2.6953,-2.6956,-2.7002,-2.7001,-2.7,-2.6944,0,0,0,0,0,0,-2.6579,-2.6592,-2.6595,-2.6656,-2.6673,-2.6717,-2.6753,-2.6765,-2.6787,-2.6792,-2.685,-2.686,-2.6899,-2.6928,-2.6937,-2.6932,-2.6959,-2.7003,-2.7001,-2.7,-2.6947,-2.6941,-2.6937,0,0,0,0,0,-2.6574,-2.6575,-2.6595,-2.6606,-2.6678,-2.6716,-2.6726,-2.6771,-2.6786,-2.6789,-2.6828,-2.6858,-2.6927,-2.693,-2.694,-2.6937,-2.7003,-2.7002,-2.7,-2.6949,-2.6942,-2.6937,0,0,0,0,0,0,-2.6511,-2.6584,-2.6607,-2.6628,-2.6665,-2.6727,-2.6733,-2.6762,-2.6795,-2.6799,-2.6853,-2.6865,-2.6886,-2.6914,-2.6917,-2.6945,-2.6969,-2.6969,-2.6926,-2.692,-2.6915,-2.6908,-2.6961,0,0,0,0,0,-2.65,-2.6525,-2.6587,-2.66,-2.6618,-2.6672,-2.669,-2.6722,-2.6763,-2.6779,-2.6819,-2.6856,-2.6887,-2.6905,-2.6936,-2.6951,-2.6965,-2.6954,-2.6949,-2.6944,-2.6944,-2.6954,-2.695,-2.6995,-2.6995,-2.6995,0,0,-2.6476,-2.6519,-2.6532,-2.6589,-2.6621,-2.6646,-2.6685,-2.6709,-2.6728,-2.6782,-2.6809,-2.684,-2.6886,-2.6906,-2.6917,-2.693,-2.6935,-2.6943,-2.6939,-2.6941,-2.6952,-2.6948,-2.6944,-2.6994,-2.6994,-2.6994,0,0,-2.6446,-2.6482,-2.6496,-2.6529,-2.6578,-2.6614,-2.6618,-2.6675,-2.6698,-2.6727,-2.6768,-2.6791,-2.6841,-2.6872,-2.6894,-2.6877,-2.6906,-2.6886,-2.6859,-2.6869,-2.6865,-2.6862,-2.6856,-2.6853,-2.6885,-2.6885,-2.6885,0,-2.6411,-2.6451,-2.65,-2.6522,-2.6546,-2.6597,-2.6612,-2.6641,-2.6697,-2.6712,-2.6726,-2.6791,-2.6826,-2.6854,-2.685,-2.6867,-2.6872,-2.6879,-2.6862,-2.6859,-2.6857,-2.6852,-2.6849,-2.6882,-2.6883,-2.6883,-2.6883,0,-2.6405,-2.6431,-2.6437,-2.6491,-2.6516,-2.6534,-2.6586,-2.6604,-2.6634,-2.6668,-2.6696,-2.674,-2.678,-2.679,-2.6818,-2.6823,-2.6829,-2.6852,-2.6876,-2.6849,-2.6845,-2.6843,-2.6878,-2.6879,-2.688,-2.6881,0,0,-2.6337,-2.6419,-2.642,-2.6446,-2.6504,-2.6526,-2.6546,-2.6587,-2.6602,-2.664,-2.6658,-2.67,-2.6722,-2.6747,-2.678,-2.6788,-2.6772,-2.681,-2.6812,-2.6801,-2.6778,-2.676,-2.6757,-2.6792,-2.6791,-2.6791,-2.6774,0,-2.6316,-2.6356,-2.6401,-2.6426,-2.6451,-2.6501,-2.6519,-2.6556,-2.6589,-2.6615,-2.6652,-2.668,-2.6707,-2.6723,-2.6733,-2.6771,-2.6768,-2.6773,-2.6809,-2.6809,-2.6795,-2.6755,-2.6736,-2.6718,-2.6773,-2.6773,-2.6773,0,-2.6296,-2.6332,-2.6359,-2.6416,-2.6428,-2.6444,-2.6485,-2.651,-2.6553,-2.6577,-2.6605,-2.6641,-2.6665,-2.6686,-2.672,-2.6723,-2.674,-2.6761,-2.6761,-2.6766,-2.6789,-2.6758,-2.6714,-2.6711,-2.6771,-2.6771,-2.6771,0,-2.6244,-2.6299,-2.6322,-2.6343,-2.641,-2.6419,-2.6447,-2.6492,-2.6514,-2.655,-2.6564,-2.6602,-2.6622,-2.6651,-2.6695,-2.6707,-2.6724,-2.6749,-2.6743,-2.6742,-2.6744,-2.6743,-2.6701,-2.6756,-2.6756,-2.6756,-2.6756,0,-2.6215,-2.6229,-2.63,-2.6314,-2.6332,-2.6384,-2.64,-2.6432,-2.6472,-2.6493,-2.6538,-2.6557,-2.6615,-2.664,-2.6675,-2.6698,-2.6707,-2.6726,-2.6735,-2.6722,-2.6719,-2.6733,-2.6735,-2.6755,-2.6755,-2.6756,-2.6756,0,-2.6159,-2.6207,-2.6235,-2.6297,-2.6313,-2.6323,-2.6375,-2.6391,-2.6427,-2.6453,-2.6462,-2.6518,-2.6551,-2.6599,-2.6645,-2.6669,-2.6686,-2.67,-2.6671,-2.6676,-2.6667,-2.6667,-2.6633,-2.6631,-2.6686,-2.6686,-2.6685,0,-2.6137,-2.6149,-2.6212,-2.623,-2.6257,-2.6285,-2.6308,-2.6359,-2.6381,-2.6432,-2.6442,-2.6478,-2.651,-2.6559,-2.6604,-2.664,-2.6656,-2.6641,-2.6661,-2.6648,-2.6655,-2.6653,-2.6655,-2.6636,-2.6635,-2.6634,-2.6634,0,-2.6093,-2.6116,-2.6147,-2.6187,-2.6213,-2.6246,-2.6282,-2.6294,-2.6353,-2.6375,-2.6409,-2.6434,-2.6482,-2.6517,-2.656,-2.6588,-2.6621,-2.6627,-2.6628,-2.6614,-2.6596,-2.6605,-2.6657,-2.6627,-2.6628,-2.6629,-2.6629,-2.6629,-2.6053,-2.6067,-2.6113,-2.6146,-2.6179,-2.6211,-2.6229,-2.6267,-2.6297,-2.6341,-2.637,-2.6402,-2.6446,-2.6507,-2.6534,-2.656,-2.6573,-2.6574,-2.6574,-2.6573,-2.6568,-2.6592,-2.6568,-2.6568,-2.6568,-2.6568,-2.6569,0,-2.6011,-2.6044,-2.6074,-2.6123,-2.6149,-2.6178,-2.6219,-2.6239,-2.6267,-2.6306,-2.6336,-2.6376,-2.6411,-2.6458,-2.6496,-2.6508,-2.6524,-2.6516,-2.6515,-2.6521,-2.6554,-2.655,-2.6503,-2.6503,-2.6503,-2.6503,-2.6503,-2.6503,-2.5992,-2.6017,-2.6045,-2.6086,-2.6119,-2.6152,-2.6173,-2.6203,-2.6234,-2.6276,-2.6305,-2.6337,-2.6379,-2.642,-2.6453,-2.6467,-2.6478,-2.6466,-2.6483,-2.6513,-2.6519,-2.6525,-2.6521,-2.6468,-2.6468,-2.6448,-2.6448,-2.6448]}]]